Voltar ao catálogo

STARLINK-5526

AtivoComunicaçõesVLEO
NORAD 56496·PAYLOAD·🇺🇸 United States

Lançado May 10, 2023 de Vandenberg Space Force Base

Loading…

Próximas Passagens (próximas 24 horas)

TLE

AtualizadoSource: CelesTrak SupGP

Época: Sep 15, 2026, 03:03 UTC

1 56496C 23064BA  26258.12756944  .00070302  00000+0  58915-2 0  2585
2 56496  70.0020 346.7173 0003518 254.7888   9.9527 14.98294622    11

Acompanhe STARLINK-5526 em tempo real com AllMySat

Download on the App Store